Preview of NWS' New Version of Forecast
This preview is not operational and should not be used for support decisions.

Regional Weather Roundup (RWR)

Issued by National Weather Service (NWS)

                            
000
ASCA42 TJSJ 201810
RWRPR 
PUERTO RICO/U.S. VIRGIN ISLANDS HOURLY WEATHER ROUNDUP
NATIONAL WEATHER SERVICE SAN JUAN PR
200 PM AST TUE AUG 20 2019

PRZ001>002-007>008-010-201900-
PUERTO RICO
  
CITY           SKY/WX    TMP DP  RH WIND       PRES   REMARKS
SAN JUAN LMM   MOSUNNY   84  75  74 NE3       30.02F HX  92           
AGUADILLA      PTSUNNY   88  79  74 E18       30.04F HX 102           
CEIBA          MOSUNNY   88  79  74 E13       30.04F HX 102           
$$

VIZ001>002-201900-
U.S. VIRGIN ISLANDS
  
CITY           SKY/WX    TMP DP  RH WIND       PRES   REMARKS
CHARLOTTE AMA  MOSUNNY   84  75  74 SE12      30.02F HX  92           
CHRISTIANSTED  MOSUNNY   88  75  66 E14       30.03F HX  97           
$$

HOURLY WEATHER ROUNDUP FOR THE NEWS MEDIA
  
CITY           SKY/WX    TMP DP  RH WIND       PRES   REMARKS
ORLANDO        PTSUNNY   91  69  48 S7        30.09F HX  96           
NEW YORK       PTSUNNY   83  68  60 S13       30.10S                  
NEWARK         PTSUNNY   87  66  49 S10       30.07F                  
CHICAGO        LGT RAIN  71  68  90 E8        29.97F                  
HARTFORD       FAIR      86  55  34 W9        30.05S                  
BOSTON         FAIR      83  59  44 E13       30.05F                  
DALLAS         FAIR      98  69  38 S7        30.02F HX 104           
PHILADELPHIA   PTSUNNY   91  69  48 VRB5      30.07F HX  96           
LOS ANGELES    FAIR      77  63  61 W9        29.96R                  
WASHINGTON DC  PTSUNNY   90  71  53 E5        30.06F HX  96